Home > Weather > Warren > Past weeks

Flag for USA Past Weather in Warren, Michigan, USA — Yesterday and Last 2 Weeks

Now
78 °F

Partly sunny.


Feels Like: 80 °F
Forecast: 69 / 80 °F
Wind: 9 mph from North

Location: Detroit City Airport

Current Time: Jul 30, 2016 at 5:02:17 PM

Latest Report: Jul 30, 2016 at 3:53 PM


Visibility: 10 mi

Pressure: 29.96 "Hg

Humidity: 71%

Dew Point: 68 °F

Location of WarrenLocation

Past Weather in Warren — Graph

°F

Warren Temperature Yesterday

Maximum temperature yesterday: 82 °F (at 12:53 PM)
Minimum temperature yesterday: 69 °F (at 5:53 AM)
Average temperature yesterday: 74 °F

High & Low Weather Summary for the Past Weeks

 TemperatureHumidityPressure
High94 °F (Jul 23, 1:53 PM)94% (Jul 22, 4:53 AM)30.27 "Hg (Jul 22, 4:53 AM)
Low59 °F (Jul 20, 4:53 AM)33% (Jul 23, 12:53 PM)29.84 "Hg (Jul 25, 2:53 AM)
Average77 °F66%30.01 "Hg
* Reported Jul 15 3:53 PM — Jul 30 3:53 PM, Warren, Weather by CustomWeather, © 2016

Note: Actual official high and low records may vary slightly from our data, if they occured in-between our weather recording intervals... More about our weather records

Advertising

Warren Weather History for the Previous 24 Hours

Scroll right to see more
 ConditionsComfort  
Time TempWeatherWind HumidityBarometerVisibility
3:53 PM
Sat, Jul 30
78 °FPartly sunny.9 mph71%29.96 "Hg10 mi
2:53 PM75 °FOvercast.10 mph76%29.96 "Hg10 mi
1:53 PM74 °FOvercast.7 mph79%29.98 "Hg10 mi
12:53 PM73 °FOvercast.6 mph84%29.98 "Hg10 mi
11:53 AM71 °FOvercast.6 mph81%29.99 "Hg10 mi
10:53 AM71 °FOvercast.7 mph81%29.98 "Hg10 mi
9:53 AM70 °FOvercast.9 mph81%29.97 "Hg10 mi
8:53 AM70 °FPartly sunny.9 mph87%29.97 "Hg10 mi
7:53 AM67 °FLight rain. Cloudy.5 mph93%29.95 "Hg10 mi
6:53 AM70 °FMostly cloudy.8 mph84%29.96 "Hg10 mi
5:53 AM68 °FPassing clouds.5 mph90%29.93 "Hg10 mi
4:53 AM69 °FOvercast.6 mph84%29.93 "Hg10 mi
3:53 AM68 °FPassing clouds.6 mph84%29.93 "Hg10 mi
2:53 AM69 °FPartly cloudy.7 mph79%29.94 "Hg10 mi
1:53 AM69 °FOvercast.8 mph76%29.97 "Hg10 mi
12:53 AM70 °FPartly cloudy.7 mph71%29.97 "Hg10 mi
11:53 PM
Fri, Jul 29
70 °FPassing clouds.10 mph68%29.97 "Hg10 mi
10:53 PM71 °FClear.9 mph61%29.97 "Hg10 mi
9:53 PM73 °FSunny.8 mph57%29.98 "Hg10 mi
8:53 PM74 °FSunny.9 mph57%29.97 "Hg10 mi
7:53 PM75 °FOvercast.13 mph64%29.96 "Hg10 mi
6:53 PM76 °FSunny.10 mph69%29.95 "Hg10 mi
5:53 PM75 °FPassing clouds.8 mph85%29.94 "Hg10 mi
Weather by CustomWeather, © 2016

See weather overviewHow to use our weather pages